KB7STN Weather Reports


time (UTC)temp
C
wind
direction
speed
KPH
gust
KPH
rain 1hr
cm
rain 24hr
cm
rain mn
cm
humidity
%
barometer
mb
20260503225230 22 155 1.6 8.0 0.00 0.00 0.00 17 1000.6
20260503224721 22 155 1.6 4.8 0.00 0.00 0.00 17 1000.6
20260503224221 22 154 3.2 11.3 0.00 0.00 0.00 17 1000.7
20260503223721 22 157 3.2 11.3 0.00 0.00 0.00 16 1000.8
20260503223221 22 186 1.6 6.4 0.00 0.00 0.00 17 1000.8
20260503222721 22 181 3.2 6.4 0.00 0.00 0.00 17 1000.9
20260503222221 22 178 4.8 8.0 0.00 0.00 0.00 16 1000.9
20260503221721 22 184 4.8 9.7 0.00 0.00 0.00 16 1001.0
20260503221221 22 205 6.4 8.0 0.00 0.00 0.00 16 1001.1
20260503220721 22 222 6.4 11.3 0.00 0.00 0.00 16 1001.2
20260503220221 22 217 6.4 11.3 0.00 0.00 0.00 16 1001.2
20260503215721 23 195 6.4 19.3 0.00 0.00 0.00 15 1001.2
20260503215221 23 169 4.8 12.9 0.00 0.00 0.00 15 1001.3
20260503214721 23 171 6.4 12.9 0.00 0.00 0.00 15 1001.4
20260503214221 23 163 6.4 17.7 0.00 0.00 0.00 15 1001.5
20260503213721 23 155 6.4 11.3 0.00 0.00 0.00 16 1001.6
20260503213221 23 190 6.4 11.3 0.00 0.00 0.00 16 1001.7
20260503212721 23 222 4.8 12.9 0.00 0.00 0.00 16 1001.8
20260503212221 23 163 4.8 11.3 0.00 0.00 0.00 17 1002.0
20260503211721 23 209 6.4 12.9 0.00 0.00 0.00 17 1002.1
20260503211221 23 204 4.8 11.3 0.00 0.00 0.00 17 1002.2
20260503210721 23 172 6.4 11.3 0.00 0.00 0.00 16 1002.4
20260503210221 23 176 6.4 11.3 0.00 0.00 0.00 17 1002.4
20260503205721 23 215 8.0 14.5 0.00 0.00 0.00 16 1002.5
20260503205221 23 188 8.0 16.1 0.00 0.00 0.00 16 1002.6
20260503204721 23 151 6.4 17.7 0.00 0.00 0.00 15 1002.6
20260503204221 23 163 4.8 9.7 0.00 0.00 0.00 17 1002.8
20260503203721 23 184 4.8 12.9 0.00 0.00 0.00 17 1002.8
20260503203221 23 217 4.8 8.0 0.00 0.00 0.00 18 1002.9
20260503202721 23 159 4.8 11.3 0.00 0.00 0.00 17 1003.0
20260503202221 23 214 3.2 12.9 0.00 0.00 0.00 17 1003.2
20260503201721 23 190 4.8 9.7 0.00 0.00 0.00 18 1003.3
20260503201221 23 205 4.8 9.7 0.00 0.00 0.00 17 1003.3
20260503200721 23 209 4.8 12.9 0.00 0.00 0.00 15 1003.5
20260503200221 23 202 4.8 8.0 0.00 0.00 0.00 15 1003.5
20260503195721 23 196 4.8 9.7 0.00 0.00 0.00 18 1003.6
20260503195221 23 164 4.8 11.3 0.00 0.00 0.00 18 1003.7
20260503194721 23 168 4.8 11.3 0.00 0.00 0.00 18 1003.8
20260503194221 23 196 3.2 11.3 0.00 0.00 0.00 19 1003.8
20260503193721 23 157 3.2 12.9 0.00 0.00 0.00 18 1003.9
20260503193221 23 215 3.2 11.3 0.00 0.00 0.00 19 1004.0
20260503192723 23 182 3.2 9.7 0.00 0.00 0.00 16 1004.0
20260503192221 23 175 1.6 11.3 0.00 0.00 0.00 19 1004.1
20260503191721 23 242 1.6 11.3 0.00 0.00 0.00 19 1004.1
20260503191221 22 242 1.6 9.7 0.00 0.00 0.00 21 1004.1
20260503190721 22 242 1.6 4.8 0.00 0.00 0.00 18 1004.4
20260503190221 22 242 1.6 9.7 0.00 0.00 0.00 21 1004.4
20260503185721 22 242 1.6 9.7 0.00 0.00 0.00 23 1004.5
20260503185221 21 242 1.6 4.8 0.00 0.00 0.00 23 1004.7
20260503184721 21 242 1.6 8.0 0.00 0.00 0.00 20 1004.7
20260503184221 22 242 1.6 4.8 0.00 0.00 0.00 23 1004.8
20260503183721 21 242 1.6 6.4 0.00 0.00 0.00 24 1004.8
20260503183221 21 242 1.6 9.7 0.00 0.00 0.00 21 1004.9
20260503182721 21 242 1.6 9.7 0.00 0.00 0.00 23 1004.9
20260503182221 21 242 1.6 6.4 0.00 0.00 0.00 23 1005.0
20260503181721 21 242 3.2 8.0 0.00 0.00 0.00 23 1005.1
20260503181221 21 242 3.2 12.9 0.00 0.00 0.00 23 1005.2
20260503180721 20 247 3.2 8.0 0.00 0.00 0.00 24 1005.2
20260503180221 20 246 3.2 8.0 0.00 0.00 0.00 24 1005.2
20260503175722 20 248 3.2 11.3 0.00 0.00 0.00 25 1005.3
20260503175221 20 248 3.2 8.0 0.00 0.00 0.00 23 1005.3
20260503174721 20 248 3.2 8.0 0.00 0.00 0.00 21 1005.4
20260503174222 20 253 3.2 9.7 0.00 0.00 0.00 23 1005.4
20260503173722 20 192 3.2 11.3 0.00 0.00 0.00 22 1005.4
20260503173221 20 240 3.2 9.7 0.00 0.00 0.00 21 1005.5
20260503172721 20 241 1.6 6.4 0.00 0.00 0.00 22 1005.6
20260503172221 20 242 3.2 8.0 0.00 0.00 0.00 23 1005.7
20260503171722 20 251 1.6 8.0 0.00 0.00 0.00 22 1005.8
20260503171222 20 260 1.6 9.7 0.00 0.00 0.00 21 1005.7
20260503170721 20 249 1.6 11.3 0.00 0.00 0.00 23 1005.9
20260503170222 20 210 1.6 9.7 0.00 0.00 0.00 24 1006.0
20260503150722 16 32 0.0 0.0 0.00 0.00 0.00 37 1006.5
20260503150222 16 32 0.0 0.0 0.00 0.00 0.00 36 1006.5
20260503140222 13 32 0.0 0.0 0.00 0.00 0.00 36 1006.6
20260503131222 10 32 0.0 0.0 0.00 0.00 0.00 38 1006.4
20260503130722 10 32 0.0 0.0 0.00 0.00 0.00 40 1006.3
20260503130222 10 32 0.0 0.0 0.00 0.00 0.00 39 1006.4
20260503120222 10 32 0.0 0.0 0.00 0.00 0.00 39 1006.5
20260503110722 10 32 0.0 0.0 0.00 0.00 0.00 39 1007.1
20260503110222 10 32 0.0 0.0 0.00 0.00 0.00 38 1007.1
20260503100222 10 32 0.0 0.0 0.00 0.00 0.00 37 1006.9
20260503090222 12 32 0.0 0.0 0.00 0.00 0.00 33 1006.9
20260503081222 12 32 0.0 0.0 0.00 0.00 0.00 32 1007.2
20260503080722 12 32 0.0 0.0 0.00 0.00 0.00 32 1007.3
20260503080222 12 32 0.0 0.0 0.00 0.00 0.00 32 1007.4
20260503072723 11 32 0.0 0.0 0.00 0.00 0.00 35 1007.6
20260503072223 12 32 0.0 0.0 0.00 0.00 0.00 35 1007.7
20260503071723 12 32 0.0 0.0 0.00 0.00 0.00 35 1007.7
20260503071223 12 32 0.0 0.0 0.00 0.00 0.00 32 1007.6
20260503070723 12 32 0.0 0.0 0.00 0.00 0.00 32 1007.6
20260503070223 12 32 0.0 0.0 0.00 0.00 0.00 31 1007.6
20260503060223 12 32 0.0 0.0 0.00 0.00 0.00 33 1007.6
20260503054723 12 32 0.0 0.0 0.00 0.00 0.00 34 1007.7
20260503054223 12 32 0.0 0.0 0.00 0.00 0.00 33 1007.6
20260503053723 12 32 0.0 0.0 0.00 0.00 0.00 33 1007.7
20260503053223 12 32 0.0 0.0 0.00 0.00 0.00 32 1007.7
20260503052723 12 32 0.0 0.0 0.00 0.00 0.00 32 1007.6
20260503052223 12 32 0.0 0.0 0.00 0.00 0.00 32 1007.6
20260503051723 12 32 0.0 0.0 0.00 0.00 0.00 32 1007.6
20260503051223 12 32 0.0 0.0 0.00 0.00 0.00 32 1007.7
20260503050723 12 32 0.0 0.0 0.00 0.00 0.00 32 1007.6
20260503050223 12 32 0.0 0.0 0.00 0.00 0.00 32 1007.7
20260503045723 13 32 0.0 0.0 0.00 0.00 0.00 32 1007.8
20260503045223 13 32 0.0 0.0 0.00 0.00 0.00 32 1007.8
20260503044723 13 32 0.0 0.0 0.00 0.00 0.00 32 1007.8
20260503044223 13 32 0.0 0.0 0.00 0.00 0.00 32 1007.8
20260503043723 13 32 0.0 0.0 0.00 0.00 0.00 32 1007.8
20260503043223 13 32 0.0 0.0 0.00 0.00 0.00 32 1007.9
20260503042723 13 32 0.0 0.0 0.00 0.00 0.00 32 1007.9
20260503042223 13 32 0.0 0.0 0.00 0.00 0.00 31 1007.9
20260503041723 13 32 0.0 0.0 0.00 0.00 0.00 31 1007.9
20260503041223 13 32 0.0 0.0 0.00 0.00 0.00 32 1007.8
20260503040723 13 32 0.0 0.0 0.00 0.00 0.00 30 1007.9
20260503040223 13 32 0.0 0.0 0.00 0.00 0.00 30 1007.8
20260503035723 13 32 0.0 0.0 0.00 0.00 0.00 30 1007.8
20260503035223 14 32 0.0 0.0 0.00 0.00 0.00 31 1007.7
20260503034723 14 32 0.0 0.0 0.00 0.00 0.00 31 1007.7
20260503034223 14 32 0.0 0.0 0.00 0.00 0.00 30 1007.7
20260503033723 14 32 0.0 0.0 0.00 0.00 0.00 30 1007.7
20260503033223 15 32 0.0 0.0 0.00 0.00 0.00 29 1007.7
20260503032723 15 32 0.0 0.0 0.00 0.00 0.00 29 1007.6
20260503032223 15 32 0.0 0.0 0.00 0.00 0.00 29 1007.6
20260503031723 15 32 0.0 0.0 0.00 0.00 0.00 29 1007.6
20260503031223 15 32 0.0 0.0 0.00 0.00 0.00 31 1007.5
20260503030723 15 32 0.0 0.0 0.00 0.00 0.00 29 1007.5
20260503030223 15 32 0.0 0.0 0.00 0.00 0.00 28 1007.5
20260503025723 15 32 0.0 0.0 0.00 0.00 0.00 28 1007.5
20260503025223 16 32 0.0 0.0 0.00 0.00 0.00 28 1007.5
20260503024723 16 32 0.0 0.0 0.00 0.00 0.00 26 1007.5
20260503024223 16 32 0.0 0.0 0.00 0.00 0.00 26 1007.5
20260503023723 16 32 0.0 0.0 0.00 0.00 0.00 26 1007.5
20260503023223 16 32 0.0 0.0 0.00 0.00 0.00 26 1007.5
20260503022723 17 32 0.0 0.0 0.00 0.00 0.00 26 1007.4
20260503022223 17 32 0.0 0.0 0.00 0.00 0.00 24 1007.4
20260503021723 17 32 0.0 0.0 0.00 0.00 0.00 25 1007.4
20260503021223 17 32 0.0 6.4 0.00 0.00 0.00 24 1007.3
20260503020723 17 32 0.0 4.8 0.00 0.00 0.00 24 1007.4
20260503020223 17 32 0.0 4.8 0.00 0.00 0.00 24 1007.3
20260503015723 18 32 0.0 0.0 0.00 0.00 0.00 23 1007.3
20260503015223 18 32 0.0 1.6 0.00 0.00 0.00 23 1007.3
20260503014723 18 32 1.6 3.2 0.00 0.00 0.00 22 1007.3
20260503014223 18 32 1.6 8.0 0.00 0.00 0.00 22 1007.3
20260503013723 18 14 1.6 8.0 0.00 0.00 0.00 22 1007.3
20260503013223 19 13 1.6 9.7 0.00 0.00 0.00 22 1007.3
20260503012723 19 42 1.6 6.4 0.00 0.00 0.00 22 1007.3
20260503012223 19 42 1.6 4.8 0.00 0.00 0.00 21 1007.2
20260503011723 20 42 3.2 8.0 0.00 0.00 0.00 21 1007.2
20260503011223 20 31 1.6 9.7 0.00 0.00 0.00 21 1007.2
20260503010723 20 38 1.6 6.4 0.00 0.00 0.00 21 1007.1
20260503010223 20 40 1.6 11.3 0.00 0.00 0.00 19 1007.1
20260503005723 20 55 1.6 4.8 0.00 0.00 0.00 20 1007.2
20260503005223 20 78 1.6 9.7 0.00 0.00 0.00 20 1007.2
20260503004723 20 97 0.0 8.0 0.00 0.00 0.00 19 1007.3
20260503004223 20 100 0.0 4.8 0.00 0.00 0.00 18 1007.2
20260503003723 21 100 0.0 4.8 0.00 0.00 0.00 17 1007.2
20260503003223 21 101 0.0 4.8 0.00 0.00 0.00 16 1007.2
20260503002723 21 102 0.0 0.0 0.00 0.00 0.00 16 1007.2
20260503002223 21 102 0.0 3.2 0.00 0.00 0.00 16 1007.3
20260503001723 21 103 0.0 4.8 0.00 0.00 0.00 16 1007.2
20260503001223 21 99 0.0 8.0 0.00 0.00 0.00 16 1007.2
20260503000723 21 101 1.6 1.6 0.00 0.00 0.00 17 1007.3
20260503000225 21 101 1.6 8.0 0.00 0.00 0.00 15 1007.3
20260502235724 21 86 1.6 11.3 0.00 0.00 0.00 15 1007.4
20260502235223 21 136 1.6 8.0 0.00 0.00 0.00 15 1007.4
20260502234723 22 132 0.0 8.0 0.00 0.00 0.00 15 1007.5
20260502234223 22 150 0.0 3.2 0.00 0.00 0.00 17 1007.4
20260502233723 21 149 1.6 3.2 0.00 0.00 0.00 17 1007.4
20260502233223 21 151 3.2 9.7 0.00 0.00 0.00 16 1007.5
20260502232723 21 190 3.2 6.4 0.00 0.00 0.00 16 1007.4
20260502232223 21 180 3.2 9.7 0.00 0.00 0.00 17 1007.5
20260502231723 21 173 3.2 9.7 0.00 0.00 0.00 17 1007.6
20260502231223 21 167 3.2 9.7 0.00 0.00 0.00 18 1007.6
20260502230723 21 160 3.2 8.0 0.00 0.00 0.00 18 1007.6
20260502230223 21 153 3.2 11.3 0.00 0.00 0.00 17 1007.7
20260502225723 21 160 4.8 12.9 0.00 0.00 0.00 18 1007.7